Domov               UVHVVR             MKGP            O straneh              
ZDRAVSTVENO VARSTVO RASTLIN
  MREŽA AGROMET. POSTAJ
 ► PROGNOSTIČNA OBVESTILA
AGROMETEOROLOŠKI PODATKI -
ARSO
OBVLADOVANJE TVEGANJ ZARADI
NEUGODNIH VREMENSKIH RAZMER
  ► NARAVNE NESREČE
  ► SUŠA/MOČA
  ► NAMAKANJE
  ► ŽLED (gozdarstvo)
KARTOGRAFSKI PRIKAZI
SPLETNE POVEZAVE
PROJEKTI IN PUBLIKACIJE

AGROMETEOROLOŠKA MREŽA: VREMENSKE POSTAJE IN FENOLOŠKA OPAZOVANJA

Pregled podatkov za lokacijo Kozana, meteorološka postaja 863701

Pregled senzorjev na lokaciji

ID Ime Zadnja
vrednost
Datum
zadnje
spremembe
Tip
senzorja
4186 Temperatura 2 m ( °C) 17,31 °C 21.8.2017 02:30 50YA
4187 Relativna vlaga 2 m (% RH) 56,6 % RH 21.8.2017 02:30 50YA
4188 Omočenost lista (U) 0 U 21.8.2017 02:30 A730WET
4189 Padavine 0.2 mm (mm) 0 mm 21.8.2017 02:30 Rain-O-Matic

Pregled podatkov zadnjih 24 ur

Zap.
št.
Datum in čas Kozana
Omočenost
lista
Padavine
0.2
mm
Relativna
vlaga
2
m
Temperatura
2
m
0 21.8.2017 01:30 0 0 56,6 17,31
1 21.8.2017 01:00 0 0 54,14 18,08
2 21.8.2017 00:30 0 0 51,19 18,7
3 21.8.2017 00:00 0 0 50,09 19,08
4 20.8.2017 23:30 0 0 48,12 19,48
5 20.8.2017 23:00 0 0 46,49 19,74
6 20.8.2017 22:30 0 0 44,35 20,15
7 20.8.2017 22:00 0 0 44,73 19,96
8 20.8.2017 21:30 0 0 42,55 20,32
9 20.8.2017 21:00 0 0 38,55 21,21
10 20.8.2017 20:30 0 0 37,43 21,72
11 20.8.2017 20:00 0 0 37,28 21,99
12 20.8.2017 19:30 0 0 37,22 22,3
13 20.8.2017 19:00 0 0 39,5 22,36
14 20.8.2017 18:30 0 0 38,45 22,99
15 20.8.2017 18:00 0 0 36,9 23,52
16 20.8.2017 17:30 0 0 37,25 24,13
17 20.8.2017 17:00 0 0 36,79 24,66
18 20.8.2017 16:30 0 0 34,91 25,04
19 20.8.2017 16:00 0 0 35,9 25,43
20 20.8.2017 15:30 0 0 35,21 25,58
21 20.8.2017 15:00 0 0 36,38 25,85
22 20.8.2017 14:30 0 0 36,68 26,12
23 20.8.2017 14:00 0 0 37,82 26,08
24 20.8.2017 13:30 0 0 37,07 25,83
25 20.8.2017 13:00 0 0 39,3 25,82
26 20.8.2017 12:30 0 0 39,8 25,41
27 20.8.2017 12:00 0 0 40,69 24,21
28 20.8.2017 11:30 0 0 41,48 23,4
29 20.8.2017 11:00 0 0 41,19 23,02
30 20.8.2017 10:30 0 0 39,19 23,73
31 20.8.2017 10:00 0 0 40,17 23,12
32 20.8.2017 09:30 0 0 40,94 22,64
33 20.8.2017 09:00 0 0 43,69 22,17
34 20.8.2017 08:30 0 0 48,45 21,05
35 20.8.2017 08:00 0 0 48,55 20,49
36 20.8.2017 07:30 0 0 50,83 19,77
37 20.8.2017 07:00 0 0 53,03 18,89
38 20.8.2017 06:30 0 0 56,56 18,01
39 20.8.2017 06:00 0 0 58,62 17,46
40 20.8.2017 05:30 0 0 59,45 17,32
41 20.8.2017 05:00 0 0 59,96 17,4
42 20.8.2017 04:30 0 0 57,66 17,95
43 20.8.2017 04:00 0 0 61,16 17,57
44 20.8.2017 03:30 0 0 67,15 16,94
45 20.8.2017 03:00 1 0 71,35 16,63
© 2011 Ministrstvo za kmetijstvo, gozdarstvo in prehrano. Vse pravice pridržane.